• Join FlightAware (Why Join?)
  • Login
  • US Flag 
06:19AM EST


 

Airport Tracker/Info


-or-


 

Live Flight TrackerFlight Track Log ✈ ASQ2517 ✈ 20-Jun-2013 ✈ KDFW - KAMA

Flight Track Log - Related Links

Times and Time Zones

All times are in EDT time to prevent confusion due to time zone crossing. See the ASQ2517 flight status page for this flight to view local times or setup timezone preferences in your user account.

Time Position Orientation Groundspeed Altitude Reporting Facility
EDT Latitude Longitude Course Direction KTS MPH feet Rate Location/Type
12:14AM 32.8833 -97.0500 180° South 170 196 1,000  Level Dallas / Fort Worth TRACON
12:14AM 32.8667 -97.0500 180° South 149 171 2,200 1,500 Climbing Dallas / Fort Worth TRACON
12:15AM 32.8167 -97.0667 196° South 248 285 3,400 1,579 Climbing Dallas / Fort Worth TRACON
12:16AM 32.7667 -97.1167 220° Southwest 255 293 5,200 2,222 Climbing Dallas / Fort Worth TRACON
12:17AM 32.7667 -97.2000 270° West 269 310 7,400 1,824 Climbing Dallas / Fort Worth TRACON
12:19AM 32.8167 -97.3119 298° West 295 339 9,700 1,297 Climbing Fort Worth Center
12:20AM 32.8772 -97.4036 308° West 317 365 10,600 1,150 Climbing Fort Worth Center
12:21AM 32.9336 -97.4900 308° West 346 398 12,000 1,450 Climbing Fort Worth Center
12:22AM 33.0003 -97.5942 307° West 360 414 13,500 1,350 Climbing Fort Worth Center
12:23AM 33.0606 -97.6886 307° West 360 414 14,700 1,300 Climbing Fort Worth Center
12:24AM 33.1103 -97.8003 298° West 366 421 16,100 1,250 Climbing Fort Worth Center
12:25AM 33.1475 -97.9172 291° West 378 435 17,200 950 Climbing Fort Worth Center
12:26AM 33.1867 -98.0364 291° West 383 441 18,000 800 Climbing Fort Worth Center
12:27AM 33.2256 -98.1583 291° West 393 452 18,800 950 Climbing Fort Worth Center
12:28AM 33.2644 -98.2806 291° West 393 452 19,900 600 Climbing Fort Worth Center
12:29AM 33.3033 -98.4075 290° West 400 460 20,000 50 Climbing Fort Worth Center
12:30AM 33.3439 -98.5400 290° West 413 475 20,000  Level Fort Worth Center
12:31AM 33.3822 -98.6647 290° West 433 498 20,000  Level Fort Worth Center
12:32AM 33.4247 -98.8022 290° West 438 504 20,000  Level Fort Worth Center
12:33AM 33.4731 -98.9575 291° West 450 518 20,000  Level Fort Worth Center
12:34AM 33.5111 -99.0850 290° West 450 518 20,000  Level Fort Worth Center
12:35AM 33.5569 -99.2406 290° West 450 518 20,000  Level Fort Worth Center
12:36AM 33.6006 -99.3836 290° West 455 524 20,000  Level Fort Worth Center
12:37AM 33.6697 -99.5025 305° West 432 497 20,000  Level Fort Worth Center
12:38AM 33.7639 -99.6047 318° Northwest 437 503 20,000  Level Fort Worth Center
12:39AM 33.8581 -99.7119 317° Northwest 449 517 20,000  Level Fort Worth Center
12:40AM 33.9500 -99.8147 317° Northwest 454 522 20,000  Level Fort Worth Center
12:41AM 34.0417 -99.9200 316° Northwest 454 522 20,000  Level Fort Worth Center
12:42AM 34.1356 -100.0256 317° Northwest 460 529 20,000  Level Fort Worth Center
12:43AM 34.2272 -100.1264 318° Northwest 453 521 20,000  Level Fort Worth Center
12:44AM 34.3208 -100.2347 316° Northwest 453 521 20,000  Level Fort Worth Center
12:45AM 34.4278 -100.3814 312° West 457 526 20,000  Level Albuquerque Center
12:46AM 34.5044 -100.5031 307° West 456 525 20,000  Level Albuquerque Center
12:47AM 34.5811 -100.6272 307° West 459 528 20,000 -689 Level Albuquerque Center
12:48AM 34.6717 -100.7711 307° West 453 521 18,600 -1,525 Descending Albuquerque Center
12:49AM 34.7422 -100.8881 306° West 436 502 16,900 -1,672 Descending Albuquerque Center
12:50AM 34.8133 -101.0014 307° West 428 493 15,200 -1,721 Descending Albuquerque Center
12:51AM 34.8806 -101.1089 307° West 410 472 13,400 -1,672 Descending Albuquerque Center
12:52AM 34.9444 -101.1864 315° West 333 383 11,800 -1,574 Descending Albuquerque Center
12:53AM 35.0072 -101.2650 314° West 322 371 10,200 -1,171 Descending Albuquerque Center
12:54AM 35.0669 -101.3400 314° West 315 362 9,400 -1,171 Descending Albuquerque Center
12:55AM 35.1239 -101.4111 314° West 302 348 7,800 -1,426 Descending Albuquerque Center
12:56AM 35.1817 -101.4836 314° West 299 344 6,500 -1,180 Descending Albuquerque Center
12:57AM 35.2389 -101.5547 315° West 298 343 5,400 -744 Descending Albuquerque Center
12:58AM 35.2683 -101.6247 297° West 235 270 5,000 -545 Descending Albuquerque Center
12:59AM 35.2517 -101.6644 243° Southwest 174 200 4,300 -639 Descending Albuquerque Center
01:00AM 35.2328 -101.7000 237° Southwest 146 168 3,700 -590 Descending Albuquerque Center
01:02AM 35.2167 -101.7000 219° Southwest  Level FlightAware Approximate